QPF
0.11 0.10 0.08 0.06 0.05 0.06 0.07 0.08 0.07 0.07 0.07 0.06 0.05 0.05 0.04 0.04 0.04 0.04 0.03 0.03 0.02 0.02 0.02 0.01 0.02 0.02 0.02 0.02 0.03 0.03 0.03 0.02 0.02 0.02 0.02 0.02 0.02 0.02
0.11 0.09 0.08 0.06 0.04 0.04 0.06 0.08 0.08 0.07 0.06 0.05 0.05 0.05 0.05 0.04 0.05 0.04 0.04 0.04 0.03 0.02 0.02 0.01 0.01 0.02 0.02 0.02 0.02 0.02 0.02 0.02 0.02 0.01 0.01 0.01 0.01 0.01
0.12 0.10 0.08 0.06 0.05 0.04 0.06 0.07 0.07 0.08 0.07 0.06 0.05 0.05 0.06 0.06 0.05 0.05 0.05 0.04 0.04 0.03 0.02 0.02 0.02 0.02 0.02 0.02 0.02 0.02 0.02 0.02 0.01 0.01 0.01 0.01 0.01 0.01
0.12 0.11 0.09 0.07 0.06 0.05 0.05 0.06 0.06 0.07 0.07 0.07 0.05 0.05 0.06 0.06 0.06 0.06 0.05 0.04 0.04 0.04 0.03 0.02 0.01 0.01 0.02 0.02 0.02 0.02 0.02 0.01 0.01 0.01 0.01 0.01 0.01 0.01
0.11 0.11 0.09 0.08 0.07 0.06 0.05 0.06 0.06 0.06 0.07 0.07 0.06 0.04 0.04 0.06 0.07 0.08 0.08 0.07 0.04 0.03 0.03 0.02 0.02 0.02 0.02 0.01 0.01 0.01 0.01 0.01 0.01 0.00 0.01 0.01 0.01 0.01
0.12 0.11 0.09 0.07 0.06 0.06 0.06 0.06 0.06 0.06 0.07 0.07 0.06 0.06 0.06 0.06 0.08 0.08 0.08 0.07 0.05 0.03 0.02 0.02 0.02 0.02 0.02 0.01 0.01 0.01 0.01 0.01 0.01 0.00 0.01 0.01 0.01 0.01
0.15 0.12 0.10 0.09 0.07 0.07 0.06 0.06 0.07 0.08 0.08 0.10 0.09 0.08 0.08 0.07 0.07 0.07 0.06 0.06 0.05 0.04 0.03 0.02 0.02 0.02 0.02 0.01 0.01 0.01 0.01 0.01 0.01 0.01 0.01 0.01 0.01 0.01
0.19 0.15 0.12 0.11 0.10 0.09 0.09 0.07 0.07 0.07 0.08 0.09 0.09 0.08 0.08 0.07 0.06 0.06 0.05 0.05 0.06 0.05 0.04 0.03 0.02 0.02 0.01 0.01 0.01 0.01 0.01 0.01 0.01 0.01 0.01 0.01 0.01 0.01
0.18 0.16 0.15 0.13 0.11 0.10 0.10 0.10 0.09 0.08 0.08 0.08 0.08 0.07 0.07 0.07 0.06 0.05 0.05 0.04 0.04 0.04 0.04 0.04 0.03 0.02 0.01 0.01 0.01 0.01 0.01 0.02 0.01 0.01 0.01 0.01 0.01 0.01
0.19 0.16 0.15 0.13 0.12 0.12 0.11 0.10 0.10 0.10 0.09 0.09 0.09 0.08 0.08 0.07 0.06 0.06 0.05 0.05 0.04 0.04 0.03 0.03 0.03 0.02 0.02 0.01 0.02 0.02 0.02 0.02 0.02 0.02 0.01 0.01 0.01 0.01
0.20 0.17 0.15 0.14 0.15 0.14 0.12 0.12 0.11 0.11 0.11 0.12 0.12 0.11 0.11 0.10 0.10 0.09 0.07 0.06 0.05 0.04 0.03 0.02 0.02 0.02 0.02 0.02 0.02 0.02 0.02 0.02 0.02 0.02 0.01 0.01 0.01 0.00
0.21 0.20 0.19 0.17 0.17 0.14 0.12 0.13 0.13 0.11 0.11 0.13 0.15 0.14 0.11 0.10 0.09 0.07 0.05 0.04 0.03 0.03 0.03 0.02 0.02 0.02 0.02 0.02 0.02 0.02 0.02 0.02 0.01 0.01 0.01 0.01 0.01 0.00
0.20 0.19 0.19 0.19 0.17 0.15 0.12 0.12 0.13 0.12 0.11 0.13 0.14 0.13 0.12 0.11 0.09 0.06 0.04 0.03 0.03 0.03 0.02 0.02 0.02 0.02 0.02 0.02 0.02 0.02 0.01 0.01 0.01 0.01 0.00 0.00 0.01 0.00
0.18 0.15 0.16 0.18 0.17 0.16 0.15 0.15 0.16 0.17 0.16 0.15 0.13 0.13 0.11 0.10 0.08 0.06 0.05 0.04 0.03 0.02 0.02 0.02 0.02 0.02 0.03 0.03 0.02 0.02 0.01 0.01 0.01 0.00 0.00 0.00 0.00 0.00
0.16 0.17 0.18 0.18 0.17 0.16 0.17 0.17 0.17 0.18 0.18 0.16 0.12 0.10 0.08 0.07 0.06 0.06 0.05 0.04 0.04 0.03 0.02 0.02 0.02 0.03 0.03 0.03 0.03 0.02 0.02 0.01 0.01 0.00 0.00 0.00 0.00 0.00
0.17 0.19 0.19 0.20 0.20 0.21 0.20 0.19 0.19 0.17 0.15 0.12 0.09 0.08 0.08 0.07 0.07 0.06 0.05 0.04 0.04 0.03 0.02 0.02 0.02 0.03 0.03 0.03 0.02 0.02 0.01 0.01 0.01 0.00 0.00 0.00 0.00 0.00
0.19 0.21 0.20 0.20 0.22 0.23 0.23 0.22 0.19 0.18 0.14 0.11 0.10 0.10 0.10 0.09 0.07 0.05 0.04 0.04 0.03 0.03 0.03 0.02 0.02 0.03 0.02 0.02 0.01 0.01 0.01 0.00 0.00 0.00 0.00 0.01 0.00 0.00
0.19 0.19 0.18 0.17 0.18 0.18 0.19 0.19 0.18 0.17 0.14 0.12 0.11 0.11 0.11 0.09 0.07 0.06 0.05 0.04 0.03 0.02 0.03 0.02 0.02 0.02 0.02 0.02 0.01 0.01 0.00 0.00 0.00 0.00 0.00 0.01 0.01 0.01
0.17 0.16 0.14 0.15 0.14 0.14 0.13 0.14 0.15 0.15 0.14 0.12 0.12 0.12 0.11 0.09 0.08 0.07 0.06 0.04 0.03 0.03 0.03 0.02 0.02 0.02 0.02 0.01 0.01 0.00 0.00 0.00 0.00 0.00 0.00 0.01 0.01 0.01
0.14 0.13 0.12 0.12 0.12 0.11 0.11 0.11 0.11 0.12 0.13 0.13 0.12 0.11 0.10 0.09 0.08 0.07 0.06 0.05 0.04 0.03 0.03 0.02 0.02 0.02 0.01 0.01 0.01 0.01 0.01 0.01 0.00 0.00 0.00 0.01 0.01 0.01
0.14 0.14 0.13 0.11 0.10 0.10 0.10 0.10 0.09 0.10 0.11 0.12 0.12 0.11 0.10 0.09 0.08 0.07 0.07 0.07 0.06 0.04 0.03 0.02 0.02 0.02 0.02 0.01 0.01 0.01 0.01 0.01 0.01 0.01 0.01 0.01 0.01 0.01
0.14 0.13 0.12 0.10 0.09 0.10 0.11 0.11 0.11 0.10 0.09 0.09 0.10 0.11 0.11 0.11 0.10 0.08 0.06 0.05 0.04 0.04 0.03 0.03 0.03 0.03 0.02 0.02 0.01 0.01 0.01 0.01 0.01 0.01 0.01 0.01 0.01 0.02
0.12 0.12 0.11 0.10 0.08 0.08 0.09 0.09 0.09 0.09 0.08 0.08 0.08 0.09 0.09 0.09 0.09 0.08 0.07 0.05 0.04 0.03 0.03 0.03 0.03 0.03 0.03 0.02 0.02 0.01 0.01 0.01 0.01 0.01 0.01 0.01 0.01 0.01
MSLP
998.39 998.04 997.65 997.25 996.87 996.56 996.33 996.22 996.24 996.42 996.74 997.22 997.83 998.56 999.36 1000.22 1001.10 1001.97 1002.79 1003.57 1004.27 1004.90 1005.46 1005.95 1006.39 1006.78 1007.12 1007.42 1007.67 1007.87 1008.02 1008.11 1008.13 1008.09 1007.97 1007.78 1007.53 1007.23
997.33 997.01 996.66 996.29 995.94 995.65 995.45 995.37 995.43 995.66 996.05 996.60 997.31 998.15 999.08 1000.08 1001.08 1002.07 1003.01 1003.87 1004.63 1005.29 1005.85 1006.33 1006.73 1007.08 1007.38 1007.64 1007.86 1008.03 1008.16 1008.23 1008.22 1008.14 1007.97 1007.74 1007.43 1007.08
996.17 995.91 995.60 995.27 994.96 994.71 994.56 994.54 994.67 994.97 995.44 996.10 996.91 997.87 998.93 1000.05 1001.18 1002.28 1003.31 1004.25 1005.06 1005.74 1006.31 1006.77 1007.14 1007.44 1007.70 1007.91 1008.09 1008.23 1008.33 1008.36 1008.31 1008.19 1007.99 1007.70 1007.35 1006.95
994.94 994.75 994.51 994.24 994.00 993.83 993.76 993.82 994.04 994.43 995.00 995.75 996.67 997.73 998.90 1000.12 1001.35 1002.54 1003.65 1004.64 1005.49 1006.20 1006.77 1007.21 1007.56 1007.83 1008.05 1008.22 1008.36 1008.46 1008.51 1008.49 1008.41 1008.24 1008.00 1007.67 1007.27 1006.83
993.69 993.59 993.43 993.26 993.13 993.06 993.11 993.28 993.61 994.11 994.78 995.62 996.62 997.76 999.00 1000.28 1001.57 1002.81 1003.97 1005.00 1005.88 1006.60 1007.18 1007.62 1007.96 1008.21 1008.39 1008.53 1008.62 1008.68 1008.68 1008.61 1008.48 1008.27 1007.97 1007.60 1007.17 1006.69
992.47 992.46 992.42 992.37 992.37 992.46 992.65 992.96 993.42 994.03 994.80 995.72 996.78 997.96 999.22 1000.52 1001.83 1003.08 1004.25 1005.29 1006.19 1006.93 1007.51 1007.96 1008.30 1008.54 1008.70 1008.81 1008.86 1008.86 1008.81 1008.69 1008.50 1008.23 1007.89 1007.49 1007.02 1006.51
991.33 991.43 991.52 991.63 991.80 992.06 992.42 992.90 993.50 994.23 995.08 996.06 997.15 998.33 999.57 1000.85 1002.13 1003.36 1004.50 1005.54 1006.43 1007.18 1007.78 1008.24 1008.58 1008.81 1008.96 1009.04 1009.05 1009.00 1008.88 1008.70 1008.45 1008.13 1007.74 1007.30 1006.81 1006.29
990.36 990.57 990.81 991.09 991.45 991.90 992.46 993.11 993.86 994.69 995.62 996.63 997.71 998.86 1000.06 1001.27 1002.49 1003.66 1004.76 1005.77 1006.65 1007.39 1007.99 1008.46 1008.81 1009.04 1009.17 1009.21 1009.18 1009.07 1008.89 1008.65 1008.33 1007.96 1007.53 1007.06 1006.55 1006.02
989.62 989.95 990.34 990.81 991.37 992.03 992.77 993.59 994.48 995.41 996.39 997.41 998.47 999.56 1000.68 1001.81 1002.93 1004.03 1005.06 1006.02 1006.87 1007.60 1008.20 1008.67 1009.01 1009.23 1009.34 1009.35 1009.27 1009.11 1008.87 1008.56 1008.19 1007.77 1007.30 1006.80 1006.29 1005.75
989.20 989.66 990.21 990.86 991.61 992.46 993.39 994.36 995.36 996.37 997.38 998.39 999.40 1000.42 1001.44 1002.47 1003.49 1004.50 1005.46 1006.36 1007.17 1007.87 1008.45 1008.91 1009.23 1009.43 1009.52 1009.49 1009.37 1009.15 1008.85 1008.49 1008.07 1007.61 1007.12 1006.60 1006.07 1005.54
989.19 989.77 990.47 991.29 992.22 993.24 994.32 995.41 996.49 997.54 998.56 999.54 1000.48 1001.41 1002.34 1003.26 1004.18 1005.09 1005.97 1006.81 1007.56 1008.22 1008.77 1009.20 1009.50 1009.67 1009.72 1009.66 1009.49 1009.23 1008.90 1008.50 1008.04 1007.55 1007.04 1006.51 1005.97 1005.42
989.64 990.34 991.18 992.14 993.22 994.37 995.54 996.71 997.83 998.89 999.88 1000.80 1001.67 1002.51 1003.34 1004.16 1004.99 1005.81 1006.61 1007.37 1008.07 1008.67 1009.18 1009.57 1009.83 1009.96 1009.98 1009.88 1009.68 1009.39 1009.03 1008.61 1008.14 1007.63 1007.10 1006.56 1006.00 1005.44
990.55 991.36 992.32 993.40 994.58 995.80 997.03 998.22 999.33 1000.35 1001.29 1002.14 1002.92 1003.67 1004.40 1005.14 1005.87 1006.61 1007.33 1008.02 1008.65 1009.20 1009.65 1009.99 1010.20 1010.30 1010.28 1010.16 1009.94 1009.64 1009.27 1008.84 1008.37 1007.86 1007.32 1006.76 1006.18 1005.58
991.89 992.81 993.85 995.01 996.23 997.48 998.70 999.85 1000.91 1001.86 1002.71 1003.47 1004.17 1004.83 1005.47 1006.12 1006.78 1007.45 1008.10 1008.72 1009.29 1009.77 1010.16 1010.43 1010.60 1010.66 1010.61 1010.47 1010.24 1009.94 1009.58 1009.17 1008.71 1008.20 1007.65 1007.06 1006.45 1005.81
993.58 994.57 995.67 996.85 998.07 999.28 1000.45 1001.52 1002.48 1003.33 1004.08 1004.74 1005.34 1005.92 1006.49 1007.07 1007.66 1008.26 1008.85 1009.41 1009.90 1010.32 1010.64 1010.87 1010.98 1011.00 1010.93 1010.78 1010.56 1010.27 1009.93 1009.54 1009.09 1008.58 1008.03 1007.41 1006.76 1006.06
995.49 996.51 997.62 998.78 999.95 1001.09 1002.15 1003.11 1003.96 1004.68 1005.32 1005.88 1006.39 1006.89 1007.40 1007.92 1008.46 1009.01 1009.54 1010.04 1010.47 1010.82 1011.08 1011.25 1011.32 1011.31 1011.22 1011.06 1010.85 1010.59 1010.27 1009.89 1009.46 1008.96 1008.38 1007.74 1007.04 1006.28
997.47 998.49 999.56 1000.66 1001.75 1002.78 1003.72 1004.54 1005.26 1005.86 1006.39 1006.85 1007.29 1007.73 1008.19 1008.66 1009.16 1009.66 1010.14 1010.58 1010.96 1011.25 1011.46 1011.57 1011.61 1011.56 1011.46 1011.31 1011.11 1010.86 1010.56 1010.20 1009.77 1009.26 1008.67 1008.00 1007.25 1006.44
999.40 1000.37 1001.38 1002.39 1003.36 1004.26 1005.07 1005.76 1006.35 1006.85 1007.28 1007.67 1008.05 1008.44 1008.86 1009.31 1009.77 1010.23 1010.67 1011.06 1011.38 1011.62 1011.78 1011.86 1011.86 1011.80 1011.68 1011.53 1011.33 1011.10 1010.81 1010.45 1010.02 1009.50 1008.88 1008.17 1007.38 1006.54
1001.20 1002.09 1003.00 1003.90 1004.75 1005.53 1006.21 1006.79 1007.28 1007.69 1008.05 1008.38 1008.72 1009.09 1009.48 1009.90 1010.33 1010.76 1011.15 1011.50 1011.78 1011.98 1012.10 1012.14 1012.12 1012.04 1011.92 1011.76 1011.57 1011.33 1011.04 1010.68 1010.23 1009.68 1009.04 1008.30 1007.48 1006.61
1002.83 1003.62 1004.43 1005.21 1005.95 1006.61 1007.19 1007.68 1008.09 1008.44 1008.76 1009.06 1009.38 1009.72 1010.10 1010.49 1010.90 1011.29 1011.66 1011.96 1012.20 1012.37 1012.45 1012.47 1012.43 1012.35 1012.22 1012.06 1011.86 1011.62 1011.31 1010.93 1010.46 1009.88 1009.21 1008.45 1007.61 1006.73
1004.33 1005.02 1005.72 1006.39 1007.03 1007.60 1008.09 1008.52 1008.88 1009.20 1009.49 1009.78 1010.09 1010.42 1010.78 1011.15 1011.53 1011.89 1012.21 1012.49 1012.69 1012.82 1012.89 1012.89 1012.84 1012.75 1012.62 1012.46 1012.25 1012.00 1011.67 1011.26 1010.76 1010.16 1009.47 1008.69 1007.84 1006.96
1005.75 1006.34 1006.94 1007.52 1008.07 1008.57 1009.01 1009.39 1009.73 1010.03 1010.31 1010.60 1010.90 1011.22 1011.56 1011.91 1012.26 1012.58 1012.86 1013.09 1013.26 1013.37 1013.41 1013.41 1013.36 1013.27 1013.15 1012.98 1012.77 1012.50 1012.15 1011.72 1011.20 1010.58 1009.87 1009.08 1008.24 1007.38
1007.15 1007.65 1008.17 1008.68 1009.16 1009.61 1010.01 1010.36 1010.68 1010.98 1011.26 1011.55 1011.84 1012.14 1012.46 1012.77 1013.07 1013.35 1013.58 1013.78 1013.91 1014.00 1014.03 1014.02 1013.98 1013.89 1013.78 1013.61 1013.40 1013.12 1012.76 1012.32 1011.78 1011.15 1010.44 1009.66 1008.84 1008.00
Thickness
5538 5543 5549 5555 5558 5563 5568 5572 5574 5577 5586 5593 5599 5605 5606 5607 5608 5607 5606 5604 5602 5599 5596 5592 5589 5586 5581 5576 5571 5567 5562 5557 5551 5546 5541 5536 5531 5526
5529 5534 5540 5545 5549 5553 5558 5563 5567 5570 5576 5586 5591 5596 5598 5598 5599 5598 5598 5596 5594 5591 5588 5585 5582 5578 5574 5569 5563 5558 5553 5548 5543 5538 5532 5527 5522 5517
5520 5526 5532 5537 5540 5545 5549 5554 5558 5562 5567 5576 5582 5585 5587 5589 5589 5589 5588 5587 5586 5583 5580 5577 5574 5570 5566 5561 5555 5550 5545 5540 5534 5529 5524 5518 5513 5508
5513 5518 5524 5529 5533 5537 5542 5547 5551 5556 5560 5565 5571 5574 5577 5579 5580 5580 5580 5579 5577 5575 5572 5569 5566 5562 5558 5553 5547 5542 5536 5531 5526 5521 5515 5510 5505 5499
5507 5512 5518 5523 5528 5532 5537 5541 5545 5549 5553 5557 5562 5564 5567 5569 5569 5570 5569 5569 5568 5566 5563 5561 5558 5554 5549 5544 5538 5533 5528 5523 5518 5512 5507 5501 5495 5489
5501 5506 5513 5518 5524 5527 5531 5536 5538 5541 5545 5549 5552 5555 5558 5560 5560 5560 5560 5559 5559 5557 5555 5552 5548 5544 5540 5536 5531 5525 5520 5514 5509 5503 5498 5492 5486 5480
5496 5502 5509 5515 5520 5523 5528 5531 5533 5536 5540 5543 5545 5548 5550 5552 5554 5554 5554 5551 5549 5548 5545 5542 5539 5535 5531 5527 5523 5517 5512 5506 5501 5495 5490 5484 5478 5471
5492 5499 5506 5511 5515 5520 5523 5527 5531 5534 5537 5539 5543 5545 5547 5548 5548 5548 5547 5544 5540 5540 5537 5532 5530 5526 5523 5519 5515 5510 5504 5498 5493 5488 5482 5476 5469 5462
5488 5496 5503 5509 5512 5515 5518 5521 5525 5529 5534 5538 5540 5543 5544 5546 5545 5543 5543 5541 5537 5533 5528 5523 5520 5517 5514 5511 5507 5502 5497 5491 5486 5480 5474 5468 5461 5454
5487 5493 5499 5505 5508 5510 5512 5515 5518 5522 5528 5532 5536 5539 5541 5541 5541 5541 5538 5532 5526 5522 5521 5515 5511 5508 5505 5502 5499 5494 5489 5484 5478 5472 5466 5460 5453 5445
5484 5490 5495 5500 5504 5507 5509 5512 5515 5518 5521 5526 5531 5533 5535 5536 5535 5531 5528 5525 5519 5514 5513 5509 5503 5499 5496 5493 5490 5486 5481 5476 5470 5464 5458 5451 5445 5438
5482 5488 5492 5497 5500 5505 5508 5510 5513 5515 5518 5522 5523 5525 5526 5528 5529 5529 5528 5523 5517 5509 5506 5503 5497 5493 5486 5482 5480 5476 5472 5468 5462 5456 5450 5444 5437 5431
5478 5484 5489 5494 5498 5503 5507 5510 5513 5514 5515 5517 5517 5517 5519 5520 5521 5522 5522 5521 5516 5509 5505 5501 5493 5488 5482 5475 5470 5467 5464 5459 5453 5448 5442 5436 5430 5425
5475 5480 5486 5491 5496 5501 5505 5508 5509 5509 5510 5512 5512 5513 5514 5514 5514 5514 5513 5511 5511 5507 5502 5499 5492 5485 5478 5469 5463 5458 5455 5451 5445 5440 5434 5429 5423 5418
5471 5477 5482 5487 5492 5498 5502 5504 5505 5506 5508 5510 5511 5510 5510 5510 5509 5507 5504 5502 5500 5496 5493 5491 5487 5480 5475 5468 5460 5452 5446 5441 5437 5432 5426 5421 5416 5412
5467 5472 5478 5484 5490 5494 5498 5499 5502 5505 5507 5509 5508 5506 5505 5504 5503 5503 5499 5496 5491 5484 5482 5481 5478 5473 5466 5460 5454 5446 5440 5434 5429 5425 5420 5415 5410 5406
5463 5467 5473 5479 5484 5489 5492 5495 5498 5500 5502 5504 5504 5503 5501 5499 5497 5496 5495 5492 5486 5480 5473 5469 5466 5463 5458 5453 5445 5440 5434 5427 5423 5419 5413 5408 5405 5401
5460 5464 5469 5475 5480 5483 5487 5490 5494 5497 5499 5500 5500 5500 5498 5496 5493 5490 5488 5486 5480 5474 5468 5463 5458 5453 5448 5441 5437 5433 5428 5422 5417 5413 5408 5403 5399 5397
5457 5461 5466 5471 5475 5479 5483 5486 5489 5491 5495 5496 5496 5495 5493 5491 5489 5486 5482 5478 5473 5467 5462 5457 5454 5451 5445 5437 5428 5427 5423 5417 5412 5408 5403 5399 5395 5392
5451 5457 5462 5466 5470 5474 5478 5481 5483 5485 5488 5490 5491 5489 5488 5486 5483 5479 5476 5472 5468 5462 5455 5450 5447 5445 5443 5435 5425 5419 5417 5413 5408 5403 5398 5394 5390 5388
5445 5451 5457 5462 5465 5469 5472 5476 5478 5480 5482 5483 5483 5483 5482 5480 5477 5473 5469 5465 5461 5456 5450 5444 5440 5438 5434 5428 5421 5413 5410 5408 5405 5400 5395 5390 5386 5384
5440 5446 5452 5457 5461 5464 5467 5470 5473 5474 5475 5476 5476 5476 5475 5474 5471 5467 5463 5459 5455 5450 5444 5437 5433 5432 5429 5425 5418 5410 5405 5402 5400 5397 5394 5390 5385 5382
5436 5442 5448 5452 5457 5461 5463 5465 5467 5467 5468 5469 5469 5468 5468 5466 5464 5461 5457 5453 5448 5443 5437 5432 5428 5425 5422 5418 5412 5405 5401 5397 5394 5391 5389 5387 5385 5382